Voltar ao catálogo

STARLINK-32030

AtivoComunicaçõesVLEO
NORAD 61513·PAYLOAD·🇺🇸 United States

Lançado Oct 15, 2024 de Cape Canaveral Space Force Station

Loading…

Próximas Passagens (próximas 24 horas)

TLE

AtualizadoSource: CelesTrak SupGP

Época: Sep 14, 2026, 20:59 UTC

1 61513C 24183E   26257.87479167 -.00010871  00000+0 -32124-3 0  2575
2 61513  53.1584 341.7393 0001101  81.1949 340.4622 15.34389565    10

Acompanhe STARLINK-32030 em tempo real com AllMySat

Download on the App Store